FW7055 Weather Reports


time (UTC)temp
C
wind
direction
speed
KPH
gust
KPH
rain 1hr
cm
rain 24hr
cm
rain mn
cm
humidity
%
barometer
mb
20260505101154 12 190 6.4 8.0 0.00 0.00 0.00 94 1014.6
20260505100651 12 183 1.6 4.8 0.00 0.00 0.00 94 1014.6
20260505100148 12 213 3.2 4.8 0.00 0.00 0.00 94 1014.5
20260505095644 12 176 9.7 14.5 0.00 0.00 0.00 94 1014.6
20260505095141 12 212 4.8 8.0 0.00 0.00 0.00 94 1014.4
20260505094637 12 187 1.6 3.2 0.00 0.00 0.00 94 1014.4
20260505094134 12 180 3.2 3.2 0.00 0.00 0.00 94 1014.4
20260505093630 12 157 6.4 9.7 0.00 0.00 0.00 94 1014.4
20260505093127 12 184 0.0 1.6 0.00 0.00 0.00 94 1014.3
20260505092624 12 183 6.4 8.0 0.00 0.00 0.00 94 1014.3
20260505092123 12 194 6.4 8.0 0.00 0.00 0.00 94 1014.1
20260505091619 12 186 8.0 9.7 0.00 0.00 0.00 95 1014.3
20260505091118 12 169 1.6 1.6 0.00 0.00 0.00 95 1014.2
20260505090615 11 180 1.6 1.6 0.00 0.00 0.00 95 1014.4
20260505090113 11 185 6.4 8.0 0.00 0.00 0.00 95 1014.3
20260505085610 11 192 4.8 4.8 0.00 0.00 0.00 95 1014.2
20260505085109 11 195 6.4 8.0 0.00 0.00 0.00 95 1014.2
20260505084606 11 248 4.8 9.7 0.00 0.00 0.00 95 1014.0
20260505084104 11 198 3.2 3.2 0.00 0.00 0.00 95 1014.2
20260505083601 11 216 3.2 4.8 0.00 0.00 0.00 96 1014.0
20260505083058 11 216 3.2 3.2 0.00 0.00 0.00 96 1014.1
20260505082553 11 205 3.2 3.2 0.00 0.00 0.00 96 1014.2
20260505082051 11 200 3.2 3.2 0.00 0.00 0.00 96 1014.0
20260505081547 11 165 4.8 4.8 0.00 0.00 0.00 96 1014.0
20260505081044 11 182 4.8 4.8 0.00 0.00 0.00 96 1014.1
20260505080540 11 146 0.0 1.6 0.00 0.00 0.00 96 1013.9
20260505080037 11 175 3.2 3.2 0.00 0.00 0.00 96 1014.2
20260505075533 11 181 1.6 1.6 0.00 0.00 0.00 96 1013.8
20260505075030 11 196 3.2 3.2 0.00 0.00 0.00 96 1013.7
20260505074527 11 167 1.6 1.6 0.00 0.00 0.00 95 1013.9
20260505074024 11 184 3.2 3.2 0.00 0.00 0.00 95 1013.8
20260505073521 12 186 1.6 1.6 0.00 0.00 0.00 95 1013.8
20260505073020 12 197 3.2 3.2 0.00 0.00 0.00 95 1013.8
20260505072515 12 182 3.2 3.2 0.00 0.00 0.00 95 1013.6
20260505072011 12 189 1.6 3.2 0.00 0.00 0.00 95 1013.6
20260505071507 12 183 0.0 0.0 0.00 0.00 0.00 94 1013.5
20260505071006 12 185 1.6 3.2 0.00 0.00 0.00 94 1013.4
20260505070502 12 198 1.6 3.2 0.00 0.00 0.00 94 1013.4
20260505065958 12 195 1.6 3.2 0.00 0.00 0.00 94 1013.5
20260505065454 12 232 4.8 4.8 0.00 0.00 0.00 93 1013.0
20260505064951 12 198 1.6 3.2 0.00 0.00 0.00 93 1013.2
20260505064448 12 200 1.6 3.2 0.00 0.00 0.00 93 1013.2
20260505063947 12 230 4.8 4.8 0.00 0.00 0.00 93 1013.4
20260505063442 12 186 1.6 3.2 0.00 0.00 0.00 93 1013.1
20260505062939 12 217 4.8 4.8 0.00 0.00 0.00 92 1012.9
20260505062436 12 195 3.2 3.2 0.00 0.00 0.00 92 1013.0
20260505061933 12 188 4.8 4.8 0.00 0.00 0.00 92 1012.7
20260505061431 12 218 3.2 3.2 0.00 0.00 0.00 92 1012.8
20260505060928 12 182 1.6 1.6 0.00 0.00 0.00 91 1012.7
20260505060425 12 192 3.2 3.2 0.00 0.00 0.00 91 1012.7
20260505055922 12 192 1.6 1.6 0.00 0.00 0.00 91 1012.5
20260505055418 13 222 3.2 4.8 0.00 0.00 0.00 90 1012.3
20260505054915 13 240 6.4 8.0 0.00 0.00 0.00 90 1012.4
20260505054412 13 255 8.0 9.7 0.00 0.00 0.00 90 1012.4
20260505053910 13 255 4.8 4.8 0.00 0.00 0.00 90 1012.2
20260505053407 13 228 3.2 4.8 0.00 0.00 0.00 89 1012.2
20260505052903 13 221 4.8 8.0 0.00 0.00 0.00 89 1012.2
20260505052400 13 256 4.8 4.8 0.00 0.00 0.00 88 1012.2
20260505051858 13 177 1.6 1.6 0.00 0.00 0.00 88 1012.0
20260505051355 13 173 1.6 1.6 0.00 0.00 0.00 87 1012.0
20260505050853 13 199 4.8 8.0 0.00 0.00 0.00 87 1012.0
20260505050351 13 229 8.0 11.3 0.00 0.00 0.00 86 1012.2
20260505041318 15 208 3.2 3.2 0.00 0.00 0.00 81 1011.3
20260505040815 15 244 4.8 8.0 0.00 0.00 0.00 80 1011.4
20260505040313 16 256 12.9 14.5 0.00 0.00 0.00 79 1011.3
20260505035809 16 244 6.4 8.0 0.00 0.00 0.00 78 1011.1
20260505035305 16 237 1.6 3.2 0.00 0.00 0.00 78 1011.3
20260505034803 16 237 6.4 8.0 0.00 0.00 0.00 77 1011.1
20260505034259 16 238 8.0 11.3 0.00 0.00 0.00 76 1011.0
20260505033756 16 260 14.5 17.7 0.00 0.00 0.00 76 1011.1
20260505033254 17 266 14.5 16.1 0.00 0.00 0.00 75 1011.0
20260505032751 17 233 16.1 22.5 0.00 0.00 0.00 74 1010.9
20260505032247 17 220 4.8 4.8 0.00 0.00 0.00 73 1010.8
20260505031744 17 295 8.0 11.3 0.00 0.00 0.00 73 1010.6
20260505031241 18 191 6.4 9.7 0.00 0.00 0.00 72 1010.8
20260505030738 18 249 6.4 11.3 0.00 0.00 0.00 71 1010.7
20260505030234 18 218 11.3 14.5 0.00 0.00 0.00 70 1010.6
20260505025730 18 260 9.7 16.1 0.00 0.00 0.00 69 1010.4
20260505025228 18 275 20.9 24.1 0.00 0.00 0.00 69 1010.3
20260505024726 19 281 11.3 16.1 0.00 0.00 0.00 68 1010.3
20260505024223 19 256 9.7 14.5 0.00 0.00 0.00 67 1010.2
20260505023720 20 259 8.0 9.7 0.00 0.00 0.00 66 1010.2
20260505023217 20 259 11.3 12.9 0.00 0.00 0.00 65 1010.2
20260505022715 20 238 12.9 16.1 0.00 0.00 0.00 64 1010.1
20260505022211 20 160 1.6 1.6 0.00 0.00 0.00 64 1010.1
20260505021708 21 322 14.5 17.7 0.00 0.00 0.00 62 1010.2
20260505021206 21 259 14.5 17.7 0.00 0.00 0.00 62 1010.0
20260505020701 21 282 11.3 14.5 0.00 0.00 0.00 61 1010.1
20260505020151 21 250 4.8 4.8 0.00 0.00 0.00 60 1009.9
20260505015649 22 298 4.8 8.0 0.00 0.00 0.00 60 1010.1
20260505015145 22 225 11.3 11.3 0.00 0.00 0.00 59 1010.1
20260505014642 22 154 4.8 4.8 0.00 0.00 0.00 58 1009.9
20260505014139 22 295 16.1 17.7 0.00 0.00 0.00 58 1009.9
20260505013637 23 148 3.2 4.8 0.00 0.00 0.00 58 1010.0
20260505013133 23 260 11.3 12.9 0.00 0.00 0.00 58 1010.0
20260505012632 23 229 3.2 3.2 0.00 0.00 0.00 57 1009.9
20260505012128 24 261 11.3 12.9 0.00 0.00 0.00 56 1010.1
20260505011624 24 271 4.8 4.8 0.00 0.00 0.00 56 1010.0
20260505011121 23 215 8.0 9.7 0.00 0.00 0.00 57 1009.9
20260505010616 24 277 9.7 11.3 0.00 0.00 0.00 56 1010.1
20260505010114 24 294 8.0 11.3 0.00 0.00 0.00 56 1010.1
20260505005610 24 171 4.8 9.7 0.00 0.00 0.00 55 1010.1
20260505005107 24 249 1.6 3.2 0.00 0.00 0.00 54 1009.7
20260505004604 24 257 4.8 8.0 0.00 0.00 0.00 54 1010.1
20260505004101 24 263 6.4 8.0 0.00 0.00 0.00 53 1010.1
20260505003558 24 269 3.2 3.2 0.00 0.00 0.00 54 1009.9
20260505003055 25 236 9.7 11.3 0.00 0.00 0.00 54 1010.0
20260505002550 25 277 9.7 12.9 0.00 0.00 0.00 54 1010.0
20260505002049 24 291 8.0 9.7 0.00 0.00 0.00 54 1010.0
20260505001546 24 241 9.7 11.3 0.00 0.00 0.00 55 1010.1
20260505001043 25 248 17.7 22.5 0.00 0.00 0.00 55 1009.8
20260505000540 25 254 6.4 8.0 0.00 0.00 0.00 53 1009.8
20260505000038 25 246 4.8 9.7 0.00 0.00 0.00 53 1010.1
20260504235534 25 270 11.3 12.9 0.00 0.00 0.00 54 1009.9
20260504235031 24 263 6.4 8.0 0.00 0.00 0.00 55 1009.9
20260504234528 24 238 3.2 8.0 0.00 0.00 0.00 55 1009.9
20260504234025 25 223 9.7 12.9 0.00 0.00 0.00 53 1009.8
20260504233520 25 218 4.8 4.8 0.00 0.00 0.00 53 1010.0
20260504233018 25 228 6.4 9.7 0.00 0.00 0.00 52 1009.8
20260504232514 25 292 8.0 11.3 0.00 0.00 0.00 53 1009.7
20260504232012 25 240 1.6 1.6 0.00 0.00 0.00 53 1009.9
20260504231509 24 203 6.4 8.0 0.00 0.00 0.00 53 1010.0
20260504231005 25 254 8.0 11.3 0.00 0.00 0.00 52 1010.0
20260504230501 24 236 4.8 4.8 0.00 0.00 0.00 52 1009.9
20260504230000 25 263 8.0 11.3 0.00 0.00 0.00 52 1010.2
20260504225456 25 247 11.3 14.5 0.00 0.00 0.00 52 1010.5
20260504224954 25 189 6.4 8.0 0.00 0.00 0.00 50 1010.2
20260504224450 25 167 4.8 4.8 0.00 0.00 0.00 47 1010.6
20260504223947 25 198 8.0 11.3 0.00 0.00 0.00 48 1010.3
20260504223443 25 210 4.8 8.0 0.00 0.00 0.00 47 1010.6
20260504222939 25 258 9.7 12.9 0.00 0.00 0.00 47 1010.5
20260504222437 25 249 8.0 11.3 0.00 0.00 0.00 49 1010.7
20260504221934 25 221 4.8 4.8 0.00 0.00 0.00 49 1010.4
20260504221431 23 197 1.6 1.6 0.00 0.00 0.00 52 1010.5
20260504220928 25 255 11.3 17.7 0.00 0.00 0.00 50 1010.7
20260504220425 25 264 11.3 14.5 0.00 0.00 0.00 53 1010.9
20260504215922 25 211 4.8 8.0 0.00 0.00 0.00 52 1010.9
20260504215419 25 216 4.8 9.7 0.00 0.00 0.00 53 1010.9
20260504214915 25 279 11.3 12.9 0.00 0.00 0.00 53 1010.8
20260504214412 24 198 8.0 9.7 0.00 0.00 0.00 51 1011.0
20260504213908 25 310 4.8 4.8 0.00 0.00 0.00 54 1010.9
20260504213404 23 259 4.8 4.8 0.00 0.00 0.00 51 1011.0
20260504212902 25 262 17.7 20.9 0.00 0.00 0.00 52 1011.0
20260504212357 23 216 8.0 12.9 0.00 0.00 0.00 53 1011.2
20260504211856 23 280 8.0 11.3 0.00 0.00 0.00 53 1011.0
20260504211351 23 203 4.8 8.0 0.00 0.00 0.00 53 1011.2
20260504210849 23 251 11.3 12.9 0.00 0.00 0.00 53 1011.2
20260504210346 24 293 11.3 12.9 0.00 0.00 0.00 52 1011.0
20260504205843 24 291 9.7 14.5 0.00 0.00 0.00 52 1011.2
20260504205341 25 269 8.0 11.3 0.00 0.00 0.00 50 1011.3
20260504204839 23 186 6.4 8.0 0.00 0.00 0.00 50 1011.4
20260504204337 24 230 8.0 9.7 0.00 0.00 0.00 52 1011.0
20260504203836 25 253 6.4 8.0 0.00 0.00 0.00 50 1011.2
20260504203332 25 210 1.6 3.2 0.00 0.00 0.00 49 1011.2
20260504202828 23 199 3.2 3.2 0.00 0.00 0.00 52 1011.3
20260504202326 23 170 1.6 1.6 0.00 0.00 0.00 49 1011.3
20260504201822 23 182 3.2 3.2 0.00 0.00 0.00 50 1011.2
20260504201320 23 240 3.2 3.2 0.00 0.00 0.00 50 1011.5
20260504200817 23 230 3.2 3.2 0.00 0.00 0.00 48 1011.5
20260504200313 22 240 3.2 3.2 0.00 0.00 0.00 48 1011.6
20260504195809 23 235 8.0 11.3 0.00 0.00 0.00 50 1011.6
20260504195305 22 267 12.9 14.5 0.00 0.00 0.00 51 1011.4
20260504194803 23 247 1.6 1.6 0.00 0.00 0.00 50 1011.6
20260504194259 23 228 8.0 9.7 0.00 0.00 0.00 51 1011.8
20260504193755 23 262 3.2 3.2 0.00 0.00 0.00 50 1011.6
20260504193252 22 213 4.8 4.8 0.00 0.00 0.00 55 1011.7
20260504192751 22 226 8.0 9.7 0.00 0.00 0.00 54 1011.7
20260504192248 22 234 4.8 8.0 0.00 0.00 0.00 56 1011.8
20260504191747 21 232 3.2 4.8 0.00 0.00 0.00 55 1011.7
20260504191243 22 247 12.9 14.5 0.00 0.00 0.00 54 1011.7
20260504190739 21 285 9.7 11.3 0.00 0.00 0.00 56 1011.8
20260504190236 21 264 8.0 12.9 0.00 0.00 0.00 56 1011.8
20260504185732 21 217 9.7 14.5 0.00 0.00 0.00 57 1011.9
20260504185229 21 177 1.6 4.8 0.00 0.00 0.00 54 1012.2
20260504184725 21 269 9.7 11.3 0.00 0.00 0.00 57 1012.1
20260504184221 21 232 4.8 4.8 0.00 0.00 0.00 57 1012.0
20260504183717 21 289 8.0 11.3 0.00 0.00 0.00 58 1012.0
20260504183214 21 171 4.8 8.0 0.00 0.00 0.00 59 1012.1
20260504182712 21 225 1.6 3.2 0.00 0.00 0.00 59 1012.2
20260504182209 20 288 9.7 12.9 0.00 0.00 0.00 62 1012.2
20260504181707 21 300 9.7 9.7 0.00 0.00 0.00 60 1012.2
20260504181204 20 245 4.8 4.8 0.00 0.00 0.00 62 1012.3
20260504180703 20 181 6.4 8.0 0.00 0.00 0.00 61 1012.3
20260504180201 20 277 6.4 8.0 0.00 0.00 0.00 62 1012.0
20260504175658 20 230 6.4 8.0 0.00 0.00 0.00 63 1012.1
20260504175155 20 184 4.8 4.8 0.00 0.00 0.00 64 1012.4
20260504174653 20 250 4.8 4.8 0.00 0.00 0.00 60 1012.1
20260504174150 20 166 1.6 1.6 0.00 0.00 0.00 63 1012.2
20260504173646 20 205 3.2 3.2 0.00 0.00 0.00 64 1012.3
20260504173144 20 193 8.0 11.3 0.00 0.00 0.00 63 1011.9
20260504172640 20 181 8.0 9.7 0.00 0.00 0.00 64 1012.1
20260504172137 20 176 6.4 8.0 0.00 0.00 0.00 65 1012.1
20260504171633 19 146 1.6 3.2 0.00 0.00 0.00 64 1012.2
20260504171131 20 198 4.8 8.0 0.00 0.00 0.00 64 1012.0
20260504170627 20 197 4.8 4.8 0.00 0.00 0.00 65 1012.2
20260504170125 19 191 3.2 3.2 0.00 0.00 0.00 66 1012.1
20260504151010 16 187 3.2 3.2 0.00 0.00 0.00 77 1011.4
20260504150508 15 172 0.0 1.6 0.00 0.00 0.00 79 1011.7
20260504140933 12 84 0.0 0.0 0.00 0.00 0.00 93 1011.3
20260504140430 12 85 1.6 1.6 0.00 0.00 0.00 94 1011.3
20260504130355 11 85 0.0 1.6 0.00 0.00 0.00 98 1010.6
20260504120312 12 84 3.2 3.2 0.00 0.00 0.00 97 1010.5
20260504110236 12 85 0.0 0.0 0.00 0.00 0.00 95 1010.6